QPF
0.00 0.00 0.00 0.00 0.00 0.00 0.00 0.00 0.00 0.00 0.00 0.00 0.00 0.00 0.00 0.00 0.00 0.00 0.00 0.00 0.00 0.00 0.00 0.00 0.00 0.00 0.00 0.00 0.00 0.00 0.00 0.00 0.00 0.00 0.00 0.00 0.00 0.00 0.00 0.00 0.00 0.00 0.00
0.00 0.00 0.00 0.00 0.00 0.00 0.00 0.00 0.00 0.00 0.00 0.00 0.00 0.00 0.00 0.00 0.00 0.00 0.00 0.00 0.00 0.00 0.00 0.00 0.00 0.00 0.00 0.00 0.00 0.00 0.00 0.00 0.00 0.00 0.00 0.00 0.00 0.00 0.00 0.00 0.00 0.00 0.00
0.00 0.00 0.00 0.00 0.00 0.00 0.00 0.00 0.00 0.00 0.00 0.00 0.00 0.00 0.00 0.00 0.00 0.00 0.00 0.00 0.00 0.00 0.00 0.00 0.00 0.00 0.00 0.00 0.00 0.00 0.00 0.00 0.00 0.00 0.00 0.00 0.00 0.00 0.00 0.00 0.00 0.00 0.00
0.00 0.00 0.00 0.00 0.00 0.00 0.00 0.00 0.00 0.00 0.00 0.00 0.00 0.00 0.00 0.00 0.00 0.00 0.00 0.00 0.00 0.00 0.00 0.00 0.00 0.00 0.00 0.00 0.00 0.00 0.00 0.00 0.00 0.00 0.00 0.00 0.00 0.00 0.00 0.00 0.00 0.00 0.00
0.00 0.00 0.00 0.00 0.00 0.00 0.00 0.00 0.00 0.00 0.00 0.00 0.00 0.00 0.00 0.00 0.00 0.00 0.00 0.00 0.00 0.00 0.00 0.00 0.00 0.00 0.00 0.00 0.00 0.00 0.00 0.00 0.00 0.00 0.00 0.00 0.00 0.00 0.00 0.00 0.00 0.00 0.00
0.00 0.00 0.00 0.00 0.00 0.00 0.00 0.00 0.00 0.00 0.00 0.00 0.00 0.00 0.00 0.00 0.00 0.00 0.00 0.00 0.00 0.00 0.00 0.00 0.00 0.00 0.00 0.00 0.00 0.00 0.00 0.00 0.00 0.00 0.00 0.00 0.00 0.00 0.00 0.00 0.00 0.00 0.00
0.00 0.00 0.00 0.00 0.00 0.00 0.00 0.00 0.00 0.00 0.00 0.00 0.00 0.00 0.00 0.00 0.00 0.00 0.00 0.00 0.00 0.00 0.00 0.00 0.00 0.00 0.00 0.00 0.00 0.00 0.00 0.00 0.00 0.00 0.00 0.00 0.00 0.00 0.00 0.00 0.00 0.00 0.00
0.00 0.00 0.00 0.00 0.00 0.00 0.00 0.00 0.00 0.00 0.00 0.00 0.00 0.00 0.00 0.00 0.00 0.00 0.00 0.00 0.00 0.00 0.00 0.00 0.00 0.00 0.00 0.00 0.00 0.00 0.00 0.00 0.00 0.00 0.00 0.00 0.00 0.00 0.00 0.00 0.00 0.00 0.00
0.00 0.00 0.00 0.00 0.00 0.00 0.00 0.00 0.00 0.00 0.00 0.00 0.00 0.00 0.00 0.00 0.00 0.00 0.00 0.00 0.00 0.00 0.00 0.00 0.00 0.00 0.00 0.00 0.00 0.00 0.00 0.00 0.00 0.00 0.00 0.00 0.00 0.00 0.00 0.00 0.00 0.00 0.00
0.00 0.00 0.00 0.00 0.00 0.00 0.00 0.00 0.00 0.00 0.00 0.00 0.00 0.00 0.00 0.00 0.00 0.00 0.00 0.00 0.00 0.00 0.00 0.00 0.00 0.00 0.00 0.00 0.00 0.00 0.00 0.00 0.00 0.00 0.00 0.00 0.00 0.00 0.00 0.00 0.00 0.00 0.00
0.00 0.00 0.00 0.00 0.00 0.00 0.00 0.00 0.00 0.00 0.00 0.00 0.00 0.00 0.00 0.01 0.02 0.02 0.01 0.00 0.00 0.00 0.00 0.00 0.00 0.00 0.00 0.00 0.00 0.00 0.00 0.00 0.00 0.00 0.00 0.00 0.00 0.00 0.00 0.00 0.00 0.01 0.01
0.00 0.00 0.00 0.00 0.00 0.00 0.00 0.00 0.00 0.00 0.00 0.00 0.00 0.00 0.00 0.00 0.00 0.00 0.01 0.00 0.00 0.00 0.00 0.00 0.00 0.00 0.00 0.00 0.00 0.00 0.00 0.00 0.00 0.00 0.00 0.00 0.00 0.00 0.00 0.00 0.00 0.00 0.00
0.00 0.00 0.00 0.00 0.00 0.00 0.00 0.00 0.00 0.00 0.00 0.00 0.00 0.00 0.00 0.00 0.00 0.01 0.01 0.00 0.00 0.00 0.00 0.00 0.00 0.00 0.00 0.00 0.00 0.00 0.00 0.00 0.00 0.00 0.00 0.00 0.00 0.00 0.00 0.00 0.00 0.00 0.00
0.00 0.00 0.00 0.00 0.00 0.00 0.00 0.00 0.00 0.00 0.00 0.00 0.00 0.00 0.00 0.00 0.00 0.00 0.01 0.01 0.01 0.00 0.00 0.00 0.00 0.00 0.00 0.00 0.00 0.00 0.00 0.00 0.00 0.00 0.00 0.00 0.00 0.00 0.00 0.00 0.00 0.00 0.00
0.00 0.00 0.00 0.00 0.00 0.00 0.00 0.00 0.00 0.00 0.00 0.00 0.00 0.00 0.00 0.00 0.00 0.00 0.00 0.00 0.01 0.01 0.02 0.02 0.01 0.01 0.00 0.00 0.00 0.00 0.00 0.00 0.00 0.00 0.00 0.00 0.00 0.00 0.00 0.00 0.00 0.00 0.00
0.00 0.00 0.00 0.00 0.00 0.00 0.00 0.00 0.00 0.00 0.00 0.00 0.00 0.00 0.00 0.00 0.00 0.00 0.00 0.00 0.01 0.02 0.03 0.04 0.04 0.04 0.03 0.03 0.01 0.02 0.01 0.00 0.00 0.00 0.00 0.00 0.00 0.00 0.00 0.00 0.00 0.00 0.00
0.00 0.00 0.00 0.00 0.00 0.00 0.00 0.00 0.00 0.00 0.00 0.00 0.00 0.00 0.00 0.00 0.00 0.00 0.00 0.00 0.00 0.00 0.00 0.01 0.03 0.03 0.04 0.04 0.03 0.01 0.02 0.01 0.00 0.00 0.00 0.00 0.00 0.00 0.00 0.00 0.00 0.00 0.00
0.00 0.00 0.00 0.00 0.00 0.00 0.00 0.00 0.00 0.00 0.00 0.00 0.00 0.00 0.00 0.00 0.00 0.00 0.00 0.00 0.00 0.00 0.00 0.00 0.01 0.02 0.02 0.03 0.04 0.03 0.03 0.02 0.01 0.01 0.00 0.00 0.00 0.00 0.00 0.00 0.00 0.00 0.00
0.00 0.00 0.00 0.00 0.00 0.00 0.00 0.00 0.00 0.00 0.00 0.00 0.00 0.00 0.00 0.00 0.00 0.00 0.00 0.00 0.00 0.00 0.00 0.00 0.00 0.01 0.02 0.02 0.01 0.01 0.02 0.03 0.02 0.02 0.01 0.00 0.00 0.00 0.00 0.00 0.00 0.00 0.00
0.00 0.00 0.00 0.00 0.00 0.00 0.00 0.00 0.00 0.00 0.00 0.00 0.00 0.00 0.00 0.00 0.00 0.00 0.00 0.00 0.00 0.00 0.00 0.00 0.01 0.00 0.01 0.01 0.02 0.03 0.02 0.03 0.04 0.04 0.02 0.01 0.00 0.00 0.00 0.00 0.00 0.00 0.00
0.00 0.00 0.00 0.00 0.00 0.00 0.00 0.00 0.00 0.00 0.00 0.00 0.00 0.00 0.00 0.00 0.00 0.00 0.00 0.00 0.00 0.00 0.00 0.01 0.01 0.01 0.00 0.00 0.01 0.00 0.01 0.02 0.04 0.03 0.02 0.03 0.02 0.00 0.00 0.00 0.00 0.00 0.00
0.00 0.00 0.00 0.00 0.00 0.00 0.00 0.00 0.00 0.00 0.00 0.00 0.00 0.00 0.00 0.00 0.00 0.00 0.00 0.00 0.00 0.00 0.00 0.00 0.00 0.00 0.00 0.01 0.01 0.01 0.00 0.01 0.02 0.03 0.04 0.03 0.03 0.02 0.00 0.00 0.00 0.00 0.00
0.00 0.00 0.00 0.00 0.00 0.00 0.00 0.00 0.00 0.00 0.00 0.00 0.00 0.00 0.00 0.00 0.00 0.00 0.00 0.00 0.00 0.01 0.01 0.00 0.01 0.01 0.01 0.00 0.02 0.05 0.03 0.02 0.02 0.05 0.05 0.04 0.03 0.04 0.03 0.02 0.00 0.00 0.00
0.00 0.00 0.00 0.00 0.00 0.00 0.00 0.00 0.00 0.00 0.00 0.00 0.00 0.00 0.00 0.00 0.00 0.00 0.00 0.00 0.01 0.01 0.01 0.01 0.01 0.01 0.02 0.01 0.00 0.01 0.06 0.05 0.03 0.04 0.08 0.09 0.08 0.07 0.07 0.03 0.01 0.00 0.02
0.00 0.00 0.00 0.00 0.00 0.00 0.00 0.00 0.00 0.00 0.00 0.00 0.00 0.00 0.00 0.00 0.00 0.00 0.00 0.00 0.01 0.02 0.01 0.01 0.01 0.01 0.02 0.02 0.02 0.01 0.01 0.01 0.03 0.05 0.07 0.09 0.12 0.06 0.03 0.01 0.00 0.00 0.00
0.00 0.00 0.00 0.00 0.00 0.00 0.00 0.00 0.00 0.00 0.00 0.00 0.00 0.00 0.00 0.00 0.00 0.00 0.00 0.01 0.01 0.01 0.01 0.01 0.01 0.01 0.02 0.03 0.04 0.03 0.04 0.02 0.01 0.03 0.03 0.03 0.06 0.07 0.03 0.02 0.02 0.03 0.02
MSLP
1010.11 1010.95 1012.68 1013.04 1013.24 1013.40 1013.67 1013.90 1014.09 1014.10 1014.12 1014.26 1014.53 1014.81 1015.00 1015.00 1015.22 1015.33 1015.31 1015.23 1015.21 1015.13 1015.08 1015.16 1015.22 1015.22 1015.17 1015.11 1015.21 1015.30 1015.29 1015.28 1015.22 1015.29 1015.42 1015.50 1015.57 1015.57 1015.58 1015.64 1015.64 1015.04 1015.96
1010.27 1011.29 1012.99 1013.27 1013.60 1013.92 1014.21 1014.47 1014.61 1014.69 1014.76 1014.90 1014.97 1015.06 1015.16 1015.19 1015.36 1015.53 1015.67 1015.66 1015.59 1015.44 1015.42 1015.50 1015.48 1015.50 1015.48 1015.44 1015.36 1015.41 1015.49 1015.58 1015.59 1015.50 1015.51 1015.62 1015.63 1015.75 1015.80 1015.75 1015.51 1015.26 1016.14
1010.95 1011.65 1013.07 1013.93 1014.44 1014.76 1015.01 1015.21 1015.26 1015.28 1015.27 1015.33 1015.42 1015.49 1015.56 1015.60 1015.71 1015.85 1015.88 1015.85 1015.88 1015.81 1015.70 1015.69 1015.72 1015.68 1015.68 1015.75 1015.73 1015.67 1015.65 1015.65 1015.75 1015.77 1015.70 1014.79 1014.76 1015.72 1015.88 1016.00 1015.92 1015.77 1016.15
1011.89 1012.28 1013.08 1014.45 1014.68 1014.91 1015.09 1015.24 1015.45 1015.55 1015.57 1015.54 1015.51 1015.57 1015.61 1015.64 1015.67 1015.72 1015.75 1015.82 1015.86 1015.86 1015.91 1015.97 1015.89 1015.78 1015.79 1015.85 1015.90 1015.92 1015.92 1015.89 1015.83 1015.78 1015.19 1014.09 1014.15 1015.60 1015.87 1016.00 1016.05 1016.01 1016.08
1012.57 1012.88 1014.37 1014.87 1015.03 1015.24 1015.33 1015.42 1015.50 1015.50 1015.46 1015.50 1015.45 1015.47 1015.51 1015.60 1015.69 1015.74 1015.85 1015.83 1015.74 1015.78 1015.83 1015.80 1015.94 1015.98 1015.95 1015.93 1015.96 1015.97 1015.98 1016.05 1016.08 1015.91 1014.28 1014.29 1014.16 1014.92 1015.79 1015.98 1016.11 1016.15 1016.08
1013.53 1013.74 1015.17 1015.40 1015.44 1015.44 1015.52 1015.58 1015.64 1015.65 1015.60 1015.50 1015.51 1015.49 1015.47 1015.44 1015.43 1015.44 1015.42 1015.54 1015.66 1015.72 1015.63 1015.74 1015.70 1015.88 1016.06 1016.15 1016.07 1015.98 1016.03 1016.03 1016.16 1015.12 1014.39 1014.50 1014.59 1014.79 1015.40 1015.88 1015.95 1015.98 1016.15
1014.32 1014.37 1014.98 1015.58 1015.68 1015.80 1015.85 1015.88 1015.81 1015.77 1015.75 1015.72 1015.66 1015.63 1015.59 1015.54 1015.49 1015.45 1015.38 1015.37 1015.32 1015.26 1015.33 1015.38 1015.52 1015.59 1015.75 1015.98 1016.10 1016.15 1016.07 1016.09 1015.69 1014.38 1014.31 1014.27 1014.84 1015.24 1015.47 1015.58 1015.84 1016.01 1016.18
1015.05 1015.05 1014.94 1015.53 1015.81 1015.94 1016.05 1016.13 1016.10 1016.01 1016.01 1015.97 1015.86 1015.67 1015.47 1015.32 1015.17 1015.16 1015.15 1015.21 1015.24 1015.29 1015.23 1015.10 1015.19 1015.30 1015.43 1015.55 1015.74 1015.90 1015.99 1016.05 1015.54 1014.60 1013.91 1013.96 1014.11 1015.06 1015.60 1015.68 1015.66 1015.76 1016.00
1015.41 1015.47 1015.68 1015.60 1015.63 1015.98 1016.10 1016.14 1016.07 1016.08 1016.05 1016.05 1016.00 1015.96 1015.80 1015.53 1015.28 1014.67 1014.19 1014.07 1014.13 1014.45 1014.87 1014.82 1014.55 1014.67 1014.82 1014.94 1015.26 1015.43 1015.60 1015.76 1015.40 1014.33 1013.85 1013.69 1014.04 1014.72 1015.35 1015.62 1015.77 1015.77 1015.82
1016.27 1016.10 1016.13 1016.12 1016.00 1015.92 1015.92 1016.52 1016.33 1016.11 1015.95 1015.78 1015.68 1015.57 1015.55 1015.44 1015.19 1015.06 1015.07 1014.77 1014.06 1012.77 1012.46 1013.10 1013.71 1014.08 1013.96 1014.08 1014.27 1014.68 1015.00 1015.24 1015.09 1014.23 1013.61 1013.30 1013.98 1014.61 1014.93 1015.15 1015.26 1015.45 1015.64
1016.83 1017.05 1017.19 1016.84 1016.83 1016.52 1016.35 1016.41 1015.96 1015.89 1015.72 1015.48 1015.18 1015.13 1014.73 1014.04 1014.11 1014.00 1013.69 1013.97 1013.99 1014.04 1013.47 1013.00 1012.51 1012.13 1013.01 1013.36 1013.31 1013.85 1014.12 1013.83 1013.61 1013.41 1013.07 1012.76 1013.34 1014.16 1014.59 1014.77 1014.83 1014.89 1015.21
1017.63 1017.77 1018.13 1018.33 1017.90 1017.34 1017.17 1016.88 1016.64 1016.40 1016.15 1015.95 1015.86 1015.82 1015.09 1014.67 1014.37 1013.98 1013.73 1013.52 1013.56 1013.36 1013.36 1013.25 1012.86 1012.93 1012.51 1012.07 1011.69 1012.26 1012.96 1012.44 1012.33 1012.19 1012.16 1012.43 1012.74 1013.22 1013.78 1014.11 1014.28 1014.52 1014.61
1018.52 1018.63 1018.65 1019.01 1019.04 1018.41 1017.77 1017.46 1017.21 1016.89 1016.79 1016.48 1016.46 1016.42 1015.72 1015.24 1014.71 1014.21 1013.97 1013.50 1012.55 1012.06 1012.15 1012.14 1011.81 1011.45 1011.52 1011.06 1010.94 1010.41 1010.46 1011.34 1011.25 1011.18 1011.12 1011.56 1012.26 1012.67 1012.88 1013.07 1013.35 1013.65 1013.99
1019.27 1019.56 1019.52 1019.52 1019.47 1019.29 1018.64 1018.11 1017.85 1017.58 1017.38 1017.10 1016.95 1016.68 1016.18 1015.58 1015.15 1014.91 1014.48 1014.41 1013.61 1012.93 1011.84 1011.24 1011.07 1010.87 1010.48 1010.32 1010.53 1010.34 1009.82 1009.39 1009.79 1010.05 1010.06 1010.48 1010.89 1011.46 1012.05 1012.35 1012.27 1012.52 1012.85
1020.10 1020.49 1020.39 1020.40 1020.27 1019.91 1019.59 1019.23 1018.64 1018.23 1017.92 1017.66 1017.33 1017.42 1017.12 1016.59 1015.89 1015.29 1014.80 1014.14 1013.85 1013.79 1013.31 1012.52 1011.07 1010.63 1010.26 1010.00 1009.88 1009.78 1009.32 1009.11 1008.70 1008.54 1008.73 1009.25 1009.89 1010.30 1010.69 1011.18 1011.55 1011.57 1011.81
1020.86 1021.12 1021.27 1021.07 1021.20 1020.76 1020.43 1020.17 1019.61 1019.30 1018.77 1018.09 1017.87 1017.86 1017.82 1017.47 1016.70 1015.85 1015.12 1014.33 1013.51 1013.93 1013.78 1013.48 1012.65 1011.66 1010.40 1009.77 1009.14 1008.81 1008.62 1008.50 1008.37 1008.22 1007.68 1007.87 1008.45 1008.96 1009.51 1009.99 1010.38 1010.62 1010.78
1021.36 1021.71 1021.80 1021.57 1021.74 1021.40 1021.01 1020.51 1020.06 1019.90 1019.45 1018.72 1018.48 1018.32 1018.32 1018.11 1017.50 1016.97 1015.73 1015.07 1014.28 1014.04 1013.28 1012.43 1012.16 1011.65 1011.12 1009.89 1008.69 1008.51 1008.06 1007.70 1007.60 1007.56 1007.31 1007.02 1006.99 1007.68 1007.87 1008.41 1009.04 1009.49 1009.73
1022.14 1022.33 1022.33 1022.33 1022.24 1022.04 1021.61 1020.91 1020.44 1020.18 1019.66 1019.25 1019.00 1018.49 1018.83 1018.67 1018.37 1017.66 1016.77 1015.63 1015.31 1014.52 1013.39 1012.73 1012.33 1011.92 1011.54 1010.84 1009.85 1007.91 1007.20 1006.87 1006.82 1006.90 1006.44 1006.40 1006.24 1005.99 1006.43 1006.75 1007.45 1008.12 1008.58
1022.95 1023.18 1022.97 1022.92 1022.85 1022.42 1021.76 1021.32 1020.75 1020.62 1020.21 1019.87 1019.67 1019.26 1019.44 1019.08 1018.99 1018.82 1017.88 1017.06 1016.62 1015.02 1013.91 1013.23 1012.72 1012.23 1011.58 1010.94 1010.01 1009.00 1007.94 1006.48 1005.68 1005.52 1005.17 1005.21 1005.23 1005.29 1004.77 1004.77 1005.92 1006.49 1007.26
1023.79 1023.73 1023.58 1023.56 1023.68 1023.07 1022.16 1021.88 1021.43 1021.07 1020.49 1020.37 1020.09 1020.06 1019.85 1019.46 1019.43 1019.11 1018.67 1018.02 1017.36 1016.24 1015.27 1014.49 1013.74 1012.93 1012.31 1011.04 1009.88 1008.56 1007.75 1006.90 1005.61 1004.63 1004.34 1004.11 1004.10 1004.53 1004.73 1003.98 1004.20 1005.03 1005.69
1024.35 1024.44 1024.36 1024.29 1024.22 1023.93 1023.31 1022.91 1022.58 1021.89 1021.18 1020.88 1020.78 1021.27 1020.85 1020.40 1020.10 1019.61 1018.94 1018.48 1017.56 1016.93 1016.14 1015.24 1014.20 1013.53 1012.61 1011.79 1010.43 1008.16 1006.55 1005.34 1004.52 1004.15 1003.48 1003.25 1003.17 1003.07 1003.45 1003.64 1003.25 1003.33 1003.49
1025.39 1025.50 1025.11 1025.13 1024.94 1024.90 1024.71 1024.41 1023.97 1023.22 1022.48 1022.48 1022.38 1022.15 1021.81 1021.38 1020.91 1020.25 1019.76 1019.14 1018.45 1017.37 1016.63 1015.70 1014.97 1013.81 1013.02 1012.52 1011.51 1009.96 1006.56 1003.81 1002.65 1002.17 1002.17 1002.14 1002.38 1002.45 1002.03 1002.40 1002.54 1002.43 1002.30
1025.87 1025.87 1025.72 1025.99 1025.95 1026.26 1026.21 1025.20 1024.47 1023.66 1023.18 1023.19 1023.10 1022.70 1022.40 1022.15 1021.70 1021.21 1020.53 1020.00 1019.14 1018.02 1017.24 1016.47 1015.64 1014.89 1013.51 1012.87 1012.12 1011.23 1008.31 1005.33 1003.77 1001.03 1001.01 1000.93 1000.85 1000.94 1001.10 1001.41 1001.69 1001.79 1001.57
1026.67 1027.04 1027.00 1027.10 1027.09 1026.91 1026.61 1026.35 1025.67 1025.37 1024.77 1024.57 1024.20 1023.75 1023.25 1022.80 1022.41 1021.85 1021.28 1020.47 1019.56 1018.47 1017.77 1017.17 1016.34 1015.75 1014.72 1013.30 1012.52 1011.20 1010.67 1009.34 1006.73 1003.50 1001.13 1000.77 1000.31 1000.32 1000.71 1000.94 1001.03 1000.98 1001.07
1028.06 1027.94 1027.95 1027.81 1027.62 1027.64 1027.48 1027.40 1026.94 1026.52 1026.20 1025.24 1024.87 1024.37 1023.87 1023.26 1022.83 1022.27 1021.56 1020.61 1019.88 1019.14 1018.17 1017.39 1016.58 1015.98 1015.34 1014.40 1013.33 1012.10 1010.70 1009.00 1007.60 1005.86 1003.38 1001.30 1000.49 1000.21 1000.20 1000.57 1000.42 1000.38 1000.56
1028.62 1028.69 1028.44 1028.08 1028.48 1028.32 1028.22 1027.97 1027.85 1027.21 1026.57 1025.92 1025.50 1024.88 1024.32 1023.67 1023.10 1022.45 1021.67 1020.76 1019.93 1019.12 1018.46 1017.55 1016.82 1016.07 1015.42 1014.71 1013.84 1012.62 1011.49 1010.09 1008.35 1007.44 1004.89 1002.41 1000.97 999.86 1000.23 1000.05 1000.28 1000.36 1000.54
Thickness
5792 5786 5772 5767 5764 5761 5756 5752 5748 5744 5741 5738 5733 5729 5726 5724 5721 5720 5720 5720 5720 5720 5720 5719 5718 5717 5717 5717 5716 5715 5715 5715 5716 5715 5714 5713 5713 5713 5713 5712 5712 5716 5710
5795 5784 5769 5764 5758 5753 5749 5745 5741 5738 5734 5730 5728 5725 5723 5721 5718 5715 5713 5713 5713 5714 5714 5713 5713 5712 5712 5713 5714 5713 5713 5712 5711 5712 5712 5711 5711 5710 5710 5711 5713 5714 5707
5788 5780 5766 5756 5748 5743 5740 5736 5733 5730 5728 5724 5721 5719 5716 5714 5712 5710 5708 5707 5706 5706 5707 5707 5707 5707 5707 5707 5708 5708 5708 5709 5708 5708 5709 5715 5715 5708 5707 5707 5709 5710 5707
5775 5771 5761 5749 5744 5740 5736 5732 5727 5724 5723 5722 5719 5716 5713 5711 5709 5708 5707 5705 5703 5700 5700 5699 5700 5701 5702 5702 5701 5701 5702 5702 5704 5705 5709 5718 5718 5707 5705 5704 5705 5707 5706
5766 5760 5746 5741 5738 5734 5731 5728 5725 5723 5721 5719 5718 5716 5713 5710 5706 5704 5702 5701 5701 5700 5698 5696 5694 5694 5696 5696 5696 5695 5696 5695 5696 5697 5710 5711 5714 5710 5703 5702 5701 5702 5704
5755 5750 5738 5734 5731 5728 5725 5723 5720 5719 5717 5716 5714 5713 5711 5710 5708 5705 5701 5699 5697 5696 5696 5694 5693 5690 5688 5689 5690 5691 5689 5689 5689 5696 5702 5703 5704 5706 5702 5700 5700 5700 5701
5745 5742 5735 5729 5725 5722 5719 5716 5715 5713 5711 5710 5709 5707 5706 5705 5704 5703 5703 5700 5696 5694 5693 5692 5690 5690 5687 5684 5683 5683 5684 5684 5685 5695 5697 5698 5695 5695 5695 5697 5696 5696 5696
5737 5734 5732 5726 5722 5719 5715 5712 5710 5708 5705 5702 5701 5700 5700 5700 5700 5698 5698 5696 5694 5691 5688 5687 5686 5684 5684 5683 5680 5679 5678 5679 5682 5690 5695 5694 5695 5690 5687 5689 5692 5693 5693
5731 5728 5723 5721 5719 5715 5712 5709 5707 5704 5702 5699 5696 5693 5692 5693 5692 5696 5700 5699 5696 5691 5687 5686 5686 5683 5681 5680 5677 5675 5675 5674 5677 5686 5691 5692 5690 5687 5683 5682 5683 5686 5689
5720 5718 5716 5714 5712 5710 5706 5700 5699 5698 5697 5696 5694 5692 5690 5688 5687 5686 5685 5686 5687 5695 5696 5689 5684 5680 5681 5679 5678 5673 5670 5669 5672 5679 5686 5689 5685 5681 5680 5680 5680 5681 5683
5713 5709 5705 5704 5701 5701 5699 5696 5696 5694 5692 5691 5691 5689 5690 5692 5687 5685 5684 5680 5678 5675 5678 5679 5682 5685 5677 5674 5676 5673 5669 5670 5672 5675 5680 5686 5684 5678 5675 5675 5678 5679 5678
5700 5699 5693 5689 5688 5690 5687 5687 5685 5684 5683 5681 5678 5674 5677 5678 5677 5676 5674 5674 5669 5668 5665 5663 5666 5666 5669 5672 5677 5673 5667 5673 5674 5676 5678 5679 5680 5679 5676 5674 5674 5675 5677
5690 5687 5684 5678 5674 5675 5677 5676 5674 5672 5669 5668 5664 5660 5661 5661 5662 5663 5662 5662 5667 5667 5660 5657 5660 5661 5663 5665 5668 5675 5676 5670 5672 5676 5680 5678 5675 5674 5675 5677 5676 5674 5675
5679 5674 5671 5668 5664 5661 5661 5660 5658 5656 5654 5651 5648 5647 5646 5646 5645 5644 5645 5642 5645 5645 5651 5653 5650 5655 5658 5659 5656 5660 5668 5675 5674 5674 5676 5677 5677 5675 5674 5674 5677 5679 5677
5666 5660 5658 5653 5651 5649 5646 5644 5644 5642 5639 5635 5632 5626 5624 5623 5624 5625 5626 5629 5628 5625 5626 5628 5640 5640 5649 5650 5649 5651 5657 5661 5669 5675 5677 5674 5673 5674 5674 5675 5675 5677 5678
5655 5650 5645 5642 5636 5633 5629 5626 5625 5621 5619 5618 5614 5608 5602 5600 5601 5603 5604 5606 5610 5608 5607 5604 5610 5615 5628 5638 5645 5647 5649 5651 5653 5659 5671 5676 5673 5671 5672 5672 5675 5677 5678
5646 5639 5633 5628 5622 5619 5615 5611 5608 5602 5598 5597 5592 5587 5581 5576 5575 5574 5579 5580 5582 5582 5589 5594 5590 5595 5597 5614 5630 5635 5641 5646 5648 5650 5656 5667 5674 5672 5673 5673 5675 5677 5678
5633 5625 5619 5612 5607 5602 5598 5595 5590 5584 5579 5574 5568 5564 5555 5549 5545 5546 5548 5553 5552 5556 5563 5572 5570 5572 5575 5580 5596 5620 5631 5637 5639 5641 5650 5655 5664 5673 5675 5677 5676 5677 5678
5618 5609 5605 5599 5592 5588 5584 5577 5572 5563 5557 5550 5542 5536 5527 5523 5516 5512 5515 5519 5519 5530 5536 5543 5548 5549 5554 5561 5571 5588 5604 5621 5632 5637 5643 5652 5657 5665 5675 5681 5677 5679 5678
5604 5597 5591 5583 5574 5570 5567 5559 5551 5542 5535 5524 5514 5503 5495 5491 5485 5482 5481 5480 5486 5495 5501 5508 5516 5524 5528 5541 5552 5571 5587 5600 5617 5629 5635 5645 5651 5657 5660 5674 5679 5677 5679
5590 5580 5573 5566 5558 5550 5543 5536 5526 5516 5509 5499 5485 5470 5461 5453 5448 5446 5449 5446 5449 5458 5469 5476 5488 5496 5504 5513 5529 5556 5579 5597 5609 5617 5628 5637 5641 5649 5654 5663 5673 5678 5683
5569 5560 5555 5547 5540 5529 5517 5505 5493 5483 5474 5460 5447 5433 5425 5417 5411 5410 5412 5413 5416 5424 5433 5442 5450 5469 5480 5484 5496 5516 5563 5596 5610 5618 5623 5628 5628 5631 5645 5655 5665 5674 5681
5555 5547 5540 5528 5517 5503 5491 5482 5472 5460 5446 5431 5418 5407 5398 5391 5388 5387 5388 5389 5393 5398 5404 5414 5419 5428 5449 5459 5468 5485 5531 5568 5576 5613 5618 5623 5627 5631 5642 5649 5656 5664 5673
5540 5528 5517 5506 5494 5482 5470 5455 5443 5428 5416 5402 5393 5385 5381 5378 5376 5374 5374 5375 5377 5381 5381 5385 5392 5395 5408 5430 5442 5463 5480 5506 5536 5574 5601 5609 5620 5626 5631 5633 5641 5653 5662
5518 5508 5498 5488 5476 5462 5447 5430 5415 5400 5388 5385 5380 5376 5372 5368 5363 5360 5359 5360 5360 5360 5363 5365 5371 5376 5383 5394 5414 5436 5461 5492 5517 5535 5566 5592 5604 5615 5621 5619 5630 5642 5652
5504 5494 5485 5476 5458 5443 5426 5410 5391 5383 5379 5376 5371 5368 5363 5358 5351 5347 5345 5345 5347 5349 5350 5353 5356 5362 5368 5374 5389 5414 5437 5467 5493 5506 5540 5575 5591 5605 5604 5611 5615 5625 5635